315  
ASUS43 KFGF 211410  
RWRFGF  
PRAIRIE TO PINES WEATHER ROUNDUP  
NATIONAL WEATHER SERVICE EASTERN NORTH DAKOTA/GRAND FORKS ND  
900 AM CDT TUE MAY 21 2024  
 
**SATELLITE DATA USED TO AUGMENT SKY COVER AT AUTOMATED STATIONS**  
***** WEATHER ACROSS EASTERN NORTH DAKOTA *****  
 
CITY SKY/WX TMP DP RH WIND PRES REMARKS
 
GRAND FORKS CLOUDY 55 48 77 N8 29.83F  
GRAND FRKS AFB PTSUNNY 55 48 78 N8 29.82F  
GRAND FRKS NWS N/A 55 50 83 MISG 29.78F  
DEVILS LAKE FAIR 56 47 71 E8 29.87R  
FARGO CLOUDY 59 50 72 N13 29.76F  
WAHPETON ARPT RAIN 55 55 100 N12 29.71F FOG  

 
 
***** WEATHER ACROSS CENTRAL AND WESTERN NORTH DAKOTA *****  
 
CITY SKY/WX TMP DP RH WIND PRES REMARKS
 
BISMARCK FAIR 54 44 69 CALM 29.85S  
MINOT FAIR 52 43 71 CALM 29.86F  
JAMESTOWN PTSUNNY 57 49 74 NE10 29.82R  
MINOT AFB MOSUNNY 54 43 66 CALM 29.84F  
GARRISON N/A 54 43 66 CALM 29.86S  
WILLISTON NOT AVBL  
DICKINSON CLOUDY 48 42 80 NW3 29.85F  
HETTINGER FAIR 54 44 69 N12 29.86S  

 
 
***** OTHER AIRPORT OBSERVATIONS IN OUR AREA *****  
 
CITY SKY/WX TMP DP RH WIND PRES REMARKS
 
WALHALLA FAIR 54 54 100 N6 29.88R  
GRAFTON AIRPOR FAIR 54 50 87 N7 29.87R  
VALLEY CITY AR PTSUNNY 55 54 94 NE10 29.81S  
CANDO NOT AVBL  
CAVALIER APRT FAIR 54 54 100 N6 29.87S  
GWINNER CLOUDY 55 55 100 N15 29.76S  
ROLLA FAIR 55 41 58 CALM 29.87F  
***** THE ABOVE OBSERVATIONS ARE NON NWS ARE NOT QUALITY  
CONTROLLED AND MAY MIS-REPORT RAIN FOR SNOW...  

 
 
***** WEATHER ACROSS NORTHERN MINNESOTA *****  
 
CITY SKY/WX TMP DP RH WIND PRES REMARKS
 
FLAG ISLAND FAIR 55 48 76 N6 29.86S  
WARROAD FAIR 54 50 87 N7 29.85F  
ROSEAU FAIR 54 50 87 N7 29.85F  
HALLOCK FAIR 55 52 88 NE6 29.86S  
THF RVR FALLS FAIR 56 48 74 N10 29.84F  
BAUDETTE FAIR 58 52 80 N6 29.83F  
WASKISH PTSUNNY 57 48 72 NE3 29.81F  
CROOKSTON FAIR 57 46 67 NE8 29.83S  
STEPHEN NDAWN N/A 55 48 76 VRB6 N/A  
GREENBUSH NDAW N/A 54 48 82 VRB5 N/A  

 
***** WEATHER ACROSS CENTRAL AND WEST MINNESOTA *****  
 
CITY SKY/WX TMP DP RH WIND PRES REMARKS
 
FOSSTON PTSUNNY 54 46 76 NE9 29.79F  
BEMIDJI CLOUDY 56 47 71 NE9 29.78S  
PARK RAPIDS LGT RAIN 57 52 83 NE8 29.74S  
ELBOW LAKE LGT RAIN 58 56 94 NE9 29.69F  
WADENA RAIN 55 55 100 NE8 29.72F  
DETROIT LAKES CLOUDY 55 50 82 NE10 29.74F  
MOORHEAD FAIR 57 50 77 N12 29.76F  
FERGUS FALLS RAIN 57 57 100 NE15G22 29.71F FOG  
MORRIS MN RAIN 57 57 100 N12 29.64F FOG  
STAPLES RAIN 59 57 94 N5 29.72S  

 
***** WEATHER ELSEWHERE ACROSS MINNESOTA *****  
 
CITY SKY/WX TMP DP RH WIND PRES REMARKS
 
DULUTH DRIZZLE 50 47 89 E14 29.79S FOG  
INTRNTL FALLS FAIR 57 50 77 NE7 29.81F  
ELY PTSUNNY 54 54 100 NE3 29.81F  
CLOQUET CLOUDY 48 48 100 E12G17 29.77F  
WHEATON RAIN 55 54 94 N10 29.72S  
BRAINERD LGT RAIN 57 55 93 NE9 29.72F  
HIBBING LGT RAIN 55 54 96 E7 29.79R  
ALEXANDRIA RAIN 57 55 93 N12 29.68S FOG  
SAINT CLOUD CLOUDY 64 60 87 E3 29.66F  
MINNEAPOLIS CLOUDY 66 62 87 SE8 29.65F  

 
 
***** WEATHER ACROSS SOUTH DAKOTA *****  
 
CITY SKY/WX TMP DP RH WIND PRES REMARKS
 
SIOUX FALLS HVY RAIN 57 55 93 N25G31 29.54F FOG  
BROOKINGS HVY RAIN 54 53 97 N14 29.64F FOG  
WATERTOWN HVY RAIN 54 53 97 N12 29.69F FOG  
HURON LGT RAIN 54 53 97 N8 29.70F FOG  
SISSETON N/A 55 53 93 N14 29.71S  
ABERDEEN CLOUDY 57 51 80 N5 29.75S  
MITCHELL LGT RAIN 53 51 93 N43G61 29.41F FOG  
PIERRE CLOUDY 52 50 93 N15 29.72F  
MOBRIDGE CLOUDY 57 46 66 NE12 29.76F  
RAPID CITY CLOUDY 48 41 76 N13 29.85R  

 
 
***** SOME WEATHER IN NEARBY STATES *****  
 
CITY SKY/WX TMP DP RH WIND PRES REMARKS
 
GLASGOW MT FAIR 49 41 74 NW16 29.90S  
GREAT FALLS MT FAIR 44 35 70 SW15 29.95F  
CHEYENNE WY FAIR 47 38 71 VRB6 29.86R  
SCOTTSBLUFF NE CLOUDY 46 42 86 NW7 29.86S  
OMAHA NE CLOUDY 62 57 83 E15 29.53F  
DES MOINES IA TSTM 65 62 90 NE12 29.63F  
DAVENPORT IA FAIR 76 66 71 S13 29.74S  
CHICAGO IL PTSUNNY 71 62 73 SE6 29.83S  
EAU CLAIRE WI CLOUDY 65 60 84 E13G25 29.69S  
LA CROSSE WI RAIN 65 60 84 E10 29.72R  

 
 
***** SOME NATIONAL WEATHER *****  
 
CITY SKY/WX TMP DP RH WIND PRES REMARKS
 
LA GUARDIA NY PTSUNNY 69 57 65 SW5 30.00F  
RALEIGH NC FAIR 74 63 68 W5 30.06F  
ATLANTA GA FAIR 77 59 53 E8 30.05R  
NEW ORLEANS LA FAIR 82 71 69 SE10 29.94R  
OKLAHOMA CITY PTSUNNY 77 70 79 S22G31 29.69R  
ALBUQUERQUE NM FAIR 58 30 34 S6 30.02S  
SALT LAKE CITY FAIR 46 33 60 SE6 30.07R  
LOS ANGELES CA FAIR 57 51 80 W8 29.95S  
BOISE ID FAIR 46 32 58 CALM 30.11R  
SEATTLE WA LGT RAIN 48 44 86 S9 30.14F FOG  

 
 
*** WEATHER ACROSS MANITOBA...SASKATCHEWAN AND ONTARIO ***  
***ONTARIO***  
 
CITY SKY/WX TMP DP RH WIND PRES REMARKS
 
GERALDTON NOT AVBL  
THUNDER BAY PTSUNNY 54 48 82 NE7 29.86F  
SIOUX LOOKOUT NOT AVBL  
TORONTO PTSUNNY 73 61 64 SE10G18 29.86F  
BIG TROUT LK CLOUDY 41 37 87 NW6 29.97S  
PICKLE LAKE MOSUNNY 54 45 71 N3 29.91R  
DRYDEN PTSUNNY 57 46 67 NE5 29.86F  
KENORA PTSUNNY 54 46 76 N3 29.87S  

 
*** MANITOBA***  
 
CITY SKY/WX TMP DP RH WIND PRES REMARKS
 
BRANDON PTSUNNY 48 48 100 E8 29.87F FOG  
DAUPHIN CLOUDY 46 45 93 E7 29.88F  
ISLAND LAKE PTSUNNY 41 36 81 CALM 29.96S  
PILOT MOUND N/A 55 46 71 SE3 N/A  
THE PAS CLOUDY 41 37 87 NE5 29.94F  
THOMPSON LGT SNOW 32 32 100 NE7 30.01F  
WINNIPEG PTSUNNY 52 46 82 NE6 29.88F  
LYNN LAKE FLURRIES 34 32 93 E13 30.02F WCI 25  
GILLAM LGT SNOW 32 32 100 NE7 30.04S  

 
***SASKATCHEWAN***  
 
CITY SKY/WX TMP DP RH WIND PRES REMARKS
 
ESTEVAN SUNNY 52 43 71 SW6 29.85S  
KINDERSLEY CLOUDY 41 39 93 NW10 29.86S  
LLOYDMINSTER PTSUNNY 45 41 87 NE5 29.87F  
PRINCE ALBERT RAIN 41 41 100 E15 29.86S FOG  
REGINA PTSUNNY 43 39 87 W5 29.86F  
YORKTON CLOUDY 50 43 76 SE9 29.82F  
N. BATTLEFORD CLOUDY 45 41 87 N9 29.87S  
LA RONGE CLOUDY 39 36 87 NE9 29.97S  
SASKATOON LGT RAIN 45 43 93 VRB2 29.78S FOG  
SWIFT CURRENT CLOUDY 39 39 100 NW17 29.84F  

 
NOTE: THESE ARE AUTOMATED STATIONS WITH LIMITED QUALITY CONTROL  
"FAIR" INDICATES FEW OR NO CLOUDS BELOW 12,000 FEET WITH NO  
SIGNIFICANT WEATHER AND/OR S TO VISIBILITY
.  
SKY/WX - SKY CONDITION AND SIGNIFICANT WEATHER.  
TMP - AIR TEMPERATURE. DP - DEWPOINT TEMPERATURE.  
RH - RELATIVE HUMIDITY. PRES - PRESSURE.  
HX - HEAT INDEX. WCI - WIND CHILL INDEX.  
$  
 
 
CLICK HERE TO GO TO PREVIOUS BULLETINS.

The Nexlab ND Page
The Nexlab MN Page Main Text Page